CAPE
2 0 0 0 0 0 0 0 0 0 0 0 0 0 0 0 0 0 0 0 0 0 0 0 0 0 0 0 0 0 0 0 0 0 0 0 0 0 0 0 0 0 0
0 0 0 1 4 0 0 0 0 0 0 0 0 0 0 0 0 0 0 0 0 0 0 0 0 0 0 0 0 0 0 0 0 0 0 0 0 0 0 0 0 0 0
5 3 1 2 4 3 1 0 0 0 0 0 0 0 0 0 0 0 0 0 0 0 0 0 0 0 0 0 0 0 0 0 0 0 0 0 0 0 0 0 0 0 0
1 1 2 2 4 3 3 1 0 0 0 0 0 0 0 0 0 0 0 0 0 0 0 0 0 0 0 0 0 0 0 0 0 0 0 0 0 0 0 0 0 0 0
0 1 2 2 2 2 3 2 0 0 0 0 0 0 0 0 0 0 0 0 0 0 0 0 0 0 0 0 0 0 0 0 0 0 0 0 0 0 0 0 0 0 0
0 0 0 1 2 1 2 2 3 2 0 0 0 0 0 0 0 0 0 0 0 0 0 0 0 0 0 0 0 0 0 0 0 0 0 0 0 0 0 0 0 0 0
0 0 1 1 2 2 2 2 3 5 3 1 0 0 0 0 0 0 0 0 0 0 0 0 0 0 0 0 0 0 0 0 0 0 0 0 0 0 0 0 0 0 0
0 0 1 1 1 2 2 3 3 3 3 4 4 2 1 0 0 0 0 0 0 0 0 0 0 0 0 0 0 0 0 0 0 0 0 0 0 0 0 0 0 0 0
0 0 0 1 0 1 2 2 2 2 2 3 3 3 4 3 2 0 0 0 0 0 0 0 0 0 0 0 0 0 0 0 0 0 0 0 0 0 0 0 0 0 0
0 0 0 1 0 1 0 1 1 1 2 1 2 3 2 3 3 2 0 0 0 0 0 0 0 0 0 0 0 0 0 0 0 0 0 0 0 0 0 0 0 0 0
0 0 1 0 0 0 0 0 0 0 1 1 1 1 1 3 1 2 4 2 0 0 0 0 0 0 0 0 0 0 0 0 0 0 0 0 0 0 0 0 0 0 0
0 0 0 0 0 0 0 0 0 0 0 0 1 1 1 1 1 2 1 1 2 0 0 0 0 0 0 0 0 0 0 0 0 0 0 0 0 0 0 0 0 0 0
0 0 0 0 0 0 0 0 0 0 0 0 0 0 0 0 0 0 1 1 1 1 1 1 0 0 0 0 0 0 0 0 0 0 0 0 0 0 0 0 0 0 0
0 0 0 0 0 0 0 0 0 0 0 0 0 0 0 0 0 0 0 0 0 1 0 0 1 0 0 0 0 0 0 0 0 0 0 0 0 0 0 0 0 0 0
0 0 0 0 0 0 0 0 0 0 0 0 0 0 0 0 0 0 0 0 0 0 0 0 0 0 0 0 0 0 0 0 0 0 0 0 0 0 0 0 0 0 0
0 0 0 0 0 0 0 0 0 0 0 0 0 0 0 0 0 0 0 0 0 0 0 0 0 0 0 2 1 0 0 0 0 0 0 0 0 1 1 2 1 0 0
0 0 0 0 0 0 0 0 0 0 0 0 0 0 0 0 0 0 0 0 0 0 0 0 0 0 0 2 3 1 0 0 0 0 0 0 0 1 0 0 1 1 1
0 0 0 0 0 0 0 0 0 0 0 0 0 0 0 0 0 0 0 0 0 0 0 0 0 0 0 2 2 2 0 0 0 0 0 0 0 0 0 0 0 0 0
0 0 0 0 0 0 0 0 0 0 0 0 0 0 0 0 0 0 0 0 0 0 0 0 0 0 0 0 0 0 0 0 0 0 0 0 0 0 1 0 0 0 0
0 0 0 0 0 0 0 0 0 0 0 0 0 0 0 0 0 0 0 0 0 0 0 0 0 0 0 0 0 0 0 0 0 0 0 0 0 1 1 0 0 0 0
0 0 0 0 0 0 0 0 0 0 0 0 0 0 0 0 0 0 0 0 0 0 0 0 0 0 0 0 0 0 0 0 0 0 0 0 0 1 2 2 0 0 0
0 0 0 0 0 0 0 0 0 0 0 0 0 0 0 0 0 0 0 0 0 0 0 0 0 0 0 0 0 0 0 0 0 0 0 0 0 1 1 2 1 2 10
0 0 0 0 0 0 0 0 0 0 0 0 0 0 0 0 0 0 0 0 0 0 0 0 0 0 0 0 0 0 0 0 1 1 0 5 2 3 5 9 6 5 1
0 0 0 0 0 0 0 0 0 0 0 0 0 0 0 0 0 0 0 0 0 0 0 0 0 0 0 0 0 0 0 0 0 0 0 0 0 2 2 0 1 0 1
0 0 0 0 0 0 0 0 0 0 0 0 0 0 0 0 0 0 0 0 0 0 0 0 0 0 0 0 0 0 0 0 0 0 0 0 0 0 0 0 0 0 0
0 0 0 0 0 0 0 0 0 0 0 0 0 0 0 0 0 0 0 0 0 1 2 2 3 1 5 3 6 17 20 17 24 12 0 0 0 0 0 0 0 0 0
CIN
-0 -0 -0 -0 -0 -0 -0 -0 -0 -0 -0 -0 -0 -0 -0 -0 -0 -0 -0 -0 -0 -0 -0 -0 -0 -0 -0 -0 -0 -0 -0 -0 -0 -0 -0 -0 -0 -0 -0 -0 -0 -0 -0
-0 -0 -0 -0 -0 -0 -0 -0 -0 -0 -0 -0 -0 -0 -0 -0 -0 -0 -0 -0 -0 -0 -0 -0 -0 -0 -0 -0 -0 -0 -0 -0 -0 -0 -0 -0 -0 -0 -0 -0 -0 -0 -0
-0 -0 -0 -0 -0 -0 -0 -0 -0 -0 -0 -0 -0 -0 -0 -0 -0 -0 -0 -0 -0 -0 -0 -0 -0 -0 -0 -0 -0 -0 -0 -0 -0 -0 -0 -0 -0 -0 -0 -0 -0 -0 -0
-0 -0 -0 -0 -0 -0 -0 -0 -0 -0 -0 -0 -0 -0 -0 -0 -0 -0 -0 -0 -0 -0 -0 -0 -0 -0 -0 -0 -0 -0 -0 -0 -0 -0 -0 -0 -0 -0 -0 -0 -0 -0 -0
-0 -0 -0 -0 -0 -0 -0 -0 -0 -0 -0 -0 -0 -0 -0 -0 -0 -0 -0 -0 -0 -0 -0 -0 -0 -0 -0 -0 -0 -0 -0 -0 -0 -0 -0 -0 -0 -0 -0 -0 -0 -0 -0
-0 -0 -0 -0 -0 -0 -0 -0 -0 -0 -0 -0 -0 -0 -0 -0 -0 -0 -0 -0 -0 -0 -0 -0 -0 -0 -0 -0 -0 -0 -0 -0 -0 -0 -0 -0 -0 -0 -0 -0 -0 -0 -0
-0 -0 -0 -0 -0 -0 -0 -0 -0 -0 -0 -0 -0 -0 -0 -0 -0 -0 -0 -0 -0 -0 -0 -0 -0 -0 -0 -0 -0 -0 -0 -0 -0 -0 -0 -0 -0 -0 -0 -0 -0 -0 -0
-0 -0 -0 -0 -0 -0 -0 -0 -0 -0 -0 -0 -0 -0 -0 -0 -0 -0 -0 -0 -0 -0 -0 -0 -0 -0 -0 -0 -0 -0 -0 -0 -0 -0 -0 -0 -0 -0 -0 -0 -0 -0 -0
-0 -0 -0 -0 -0 -0 -0 -0 -0 -0 -0 -0 -0 -0 -0 -0 -0 -0 -0 -0 -0 -0 -0 -0 -0 -0 -0 -0 -0 -0 -0 -0 -0 -0 -0 -0 -0 -0 -0 -0 -0 -0 -0
-0 -0 -0 -0 -0 -0 -0 -0 -0 -0 -0 -0 -0 -0 -0 -0 -0 -0 -0 -0 -0 -0 -0 -0 -0 -0 -0 -0 -0 -0 -0 -0 -0 -0 -0 -0 -0 -0 -0 -0 -0 -0 -0
-0 -0 -0 -0 -0 -0 -0 -0 -0 -0 -0 -0 -0 -0 -0 -0 -0 -0 -0 -0 -0 -0 -0 -0 -0 -0 -0 -0 -0 -0 -0 -0 -0 -0 -0 -0 -0 -0 -0 -0 -0 -0 -0
-0 -0 -0 -0 -0 -0 -0 -0 -0 -0 -0 -0 -0 -0 -0 -0 -0 -0 -0 -0 -0 -0 -0 -0 -0 -0 -0 -0 -0 -0 -0 -0 -0 -0 -0 -0 -0 -0 -0 -0 -0 -0 -0
-0 -0 -0 -0 -0 -0 -0 -0 -0 -0 -0 -0 -0 -0 -0 -0 -0 -0 -0 -0 -0 -0 -0 -0 -0 -0 -0 -0 -0 -0 -0 -0 -0 -0 -0 -0 -0 -0 -0 -0 -0 -0 -0
-0 -0 -0 -0 -0 -0 -0 -0 -0 -0 -0 -0 -0 -0 -0 -0 -0 -0 -0 -0 -0 -0 -0 -0 -0 -0 -0 -0 -0 -0 -0 -0 -0 -0 -0 -0 -0 -0 -0 -0 -0 -0 -0
-0 -0 -0 -0 -0 -0 -0 -0 -0 -0 -0 -0 -0 -0 -0 -0 -0 -0 -0 -0 -0 -0 -0 -0 -0 -0 -0 -0 -0 -0 -0 -0 -0 -0 -0 -0 -0 -0 -0 -0 -0 -0 -0
-0 -0 -0 -0 -0 -0 -0 -0 -0 -0 -0 -0 -0 -0 -0 -0 -0 -0 -0 -0 -0 -0 -0 -0 -0 -0 -0 -0 -0 -0 -0 -0 -0 -0 -0 -0 -0 -0 -0 -0 -0 -0 -0
-0 -0 -0 -0 -0 -0 -0 -0 -0 -0 -0 -0 -0 -0 -0 -0 -0 -0 -0 -0 -0 -0 -0 -0 -0 -0 -0 -0 -0 -0 -0 -0 -0 -0 -0 -0 -0 -0 -0 -0 -0 -0 -0
-0 -0 -0 -0 -0 -0 -0 -0 -0 -0 -0 -0 -0 -0 -0 -0 -0 -0 -0 -0 -0 -0 -0 -0 -0 -0 -0 -0 -0 -0 -0 -0 -0 -0 -0 -0 -0 -0 -0 -0 -0 -0 -0
-0 -0 -0 -0 -0 -0 -0 -0 -0 -0 -0 -0 -0 -0 -0 -0 -0 -0 -0 -0 -0 -0 -0 -0 -0 -0 -0 -0 -0 -0 -0 -0 -0 -0 -0 -0 -0 -0 -0 -0 -0 -0 -0
-0 -0 -0 -0 -0 -0 -0 -0 -0 -0 -0 -0 -0 -0 -0 -0 -0 -0 -0 -0 -0 -0 -0 -0 -0 -0 -0 -0 -0 -0 -0 -0 -0 -0 -0 -0 -0 -0 -0 -0 -0 -0 -0
-0 -0 -0 -0 -0 -0 -0 -0 -0 -0 -0 -0 -0 -0 -0 -0 -0 -0 -0 -0 -0 -0 -0 -0 -0 -0 -0 -0 -0 -0 -0 -0 -0 -0 -0 -0 -0 -0 -0 -0 -0 -0 -0
-0 -0 -0 -0 -0 -0 -0 -0 -0 -0 -0 -0 -0 -0 -0 -0 -0 -0 -0 -0 -0 -0 -0 -0 -0 -0 -0 -0 -0 -0 -0 -0 -0 -0 -0 -0 -0 -1 -0 -0 -0 -0 -0
-0 -0 -0 -0 -0 -0 -0 -0 -0 -0 -0 -0 -0 -0 -0 -0 -0 -0 -0 -0 -0 -0 -0 -0 -0 -0 -0 -0 -0 -0 -0 -0 -3 -0 -1 -0 -1 -1 -1 -1 -1 -0 -0
-0 -0 -0 -0 -0 -0 -0 -0 -0 -0 -0 -0 -0 -0 -0 -0 -0 -0 -0 -0 -0 -0 -0 -0 -0 -0 -0 -0 -0 -0 -0 -0 -0 -0 -0 -0 -0 -0 -1 -0 -1 -3 -2
-0 -0 -0 -0 -0 -0 -0 -0 -0 -0 -0 -0 -0 -0 -0 -0 -0 -0 -0 -0 -0 -0 -0 -0 -0 -0 -0 -0 -0 -1 -0 -0 -0 -0 -0 -0 -0 -0 -0 -0 -0 -0 -0
-0 -0 -0 -0 -0 -0 -0 -0 -0 -0 -0 -0 -0 -0 -0 -0 -0 -0 -0 -0 -0 -1 -1 -2 -3 -2 -1 -4 -4 -2 -2 -2 -2 -4 -0 -0 -0 -0 -0 -0 -0 -0 -0
Wind_Speed
35 34 35 34 27 18 15 14 14 13 13 13 13 15 15 15 16 16 15 14 14 13 12 10 9 6 4 2 2 3 3 5 4 7 10 13 14 14 14 13 13 13 13
35 35 34 33 31 28 23 19 17 15 15 16 16 18 17 18 18 17 17 17 16 15 14 12 10 8 7 5 4 3 3 5 2 8 9 13 15 15 15 14 13 13 13
34 35 34 33 32 31 29 23 20 18 16 15 14 17 17 20 20 20 20 19 18 16 15 14 13 12 10 8 7 6 6 5 5 5 10 13 15 14 16 16 15 15 14
33 34 34 33 33 31 29 26 21 18 17 16 16 17 18 19 20 20 20 19 18 18 17 17 16 14 13 12 10 9 9 8 8 9 13 14 13 15 17 18 18 17 16
34 34 34 33 32 30 28 26 23 22 21 21 19 18 19 20 21 21 20 20 20 20 20 19 18 17 16 15 14 13 13 12 12 13 14 15 15 15 17 18 18 19 18
34 34 33 32 32 31 29 27 25 23 24 24 25 26 23 21 22 22 22 22 22 22 21 21 20 20 20 19 18 17 17 16 16 16 17 17 18 17 18 19 19 20 20
34 35 35 34 33 32 31 28 27 26 25 24 25 27 28 28 28 25 24 23 24 24 24 23 23 23 22 22 21 21 21 20 21 20 21 21 21 20 19 20 21 21 21
35 35 35 34 34 33 32 30 28 27 26 25 25 26 27 28 29 29 29 28 26 26 26 25 25 25 24 24 23 24 24 24 25 26 26 26 25 24 23 23 22 24 23
36 36 35 35 35 34 33 31 30 28 28 27 27 27 28 29 29 29 29 30 30 30 29 27 26 26 26 26 26 26 27 27 28 29 29 30 30 28 27 26 25 26 28
36 36 36 37 36 35 34 32 31 29 30 30 29 28 29 29 28 27 29 30 31 31 31 30 29 28 28 27 27 28 28 29 29 30 30 30 30 29 28 28 27 27 29
39 38 37 36 36 36 36 35 33 32 32 33 31 30 30 29 28 28 29 30 30 31 32 31 31 30 30 28 29 29 29 31 31 31 31 32 30 30 29 28 28 28 29
39 39 39 38 37 37 37 36 36 34 34 34 33 32 31 30 30 30 30 31 31 30 30 30 31 30 30 30 30 30 30 31 32 33 32 32 31 31 30 30 30 29 29
40 40 40 40 39 38 37 37 37 37 36 35 34 32 32 32 31 32 32 32 31 31 30 30 30 29 29 30 29 29 31 31 32 32 33 33 32 32 31 31 31 30 30
41 40 40 40 39 39 38 37 37 37 37 36 35 35 34 33 33 33 33 33 33 32 32 31 30 30 30 30 30 30 31 32 31 31 31 31 32 33 32 32 32 32 32
42 42 42 40 40 40 39 37 37 37 36 36 35 35 35 35 35 34 34 34 33 33 32 32 31 30 30 30 31 31 32 32 33 32 32 33 33 33 34 35 35 34 35
41 41 41 41 41 40 41 40 40 38 37 36 35 35 35 35 35 35 35 35 35 34 33 33 32 31 29 30 30 32 33 34 35 35 35 34 34 34 34 34 34 35 38
42 42 42 41 41 41 41 41 40 39 39 38 36 36 36 36 36 35 35 35 35 35 35 34 33 33 33 33 33 31 33 36 37 36 37 36 35 34 35 36 36 35 36
43 43 42 42 41 41 41 41 40 40 40 39 39 39 38 38 38 37 36 37 37 37 37 36 35 35 35 35 33 32 32 33 33 33 34 35 34 33 34 34 35 35 35
42 42 41 42 42 41 40 40 40 40 39 39 40 41 41 41 41 41 40 39 39 39 38 37 38 38 38 37 36 36 35 35 34 32 33 34 34 32 32 35 35 36 36
41 43 42 41 41 41 41 41 42 42 41 40 42 41 41 41 42 42 41 39 39 40 38 39 37 38 37 38 37 37 37 38 38 36 35 35 34 34 34 34 34 36 35
42 41 41 42 42 42 41 43 43 41 40 43 41 42 42 42 41 41 40 39 39 38 38 38 37 37 36 36 35 35 35 37 37 36 36 34 34 35 35 36 35 37 34
43 43 43 43 42 42 44 45 44 43 44 43 43 43 42 41 41 41 40 39 38 38 40 40 39 36 36 36 35 34 34 34 35 35 34 34 35 35 36 36 36 35 34
45 44 44 45 42 45 44 47 47 47 46 46 46 45 43 42 42 42 41 42 41 42 43 42 42 41 38 37 37 37 36 36 35 34 33 34 34 35 35 36 35 35 35
45 45 45 46 48 45 46 46 47 47 48 49 48 46 46 46 43 44 43 43 43 43 43 42 42 41 39 38 37 36 36 36 36 37 36 35 34 34 34 33 33 33 32
46 44 48 47 48 48 48 47 48 48 49 49 48 48 47 47 46 44 44 44 42 42 44 43 42 43 42 40 38 38 37 37 36 36 35 36 37 37 36 33 30 29 30
46 47 47 48 49 49 50 49 48 48 49 50 49 48 49 47 46 46 47 44 44 44 44 45 45 43 45 45 44 43 42 41 40 37 37 38 37 37 37 37 37 33 31
Wind_Direction
314 316 315 313 304 295 279 265 257 254 252 262 267 275 275 280 283 286 287 287 288 288 289 290 289 286 268 241 262 307 304 311 315 315 315 311 309 310 312 315 317 319 321
320 319 319 319 314 302 292 280 270 260 255 261 270 278 277 281 282 284 285 285 284 283 283 282 281 276 270 258 241 241 285 300 263 303 309 302 302 305 306 310 313 317 320
322 323 322 320 316 311 300 290 281 271 263 262 265 282 281 284 280 280 281 281 281 281 281 280 279 275 268 254 246 244 258 253 243 292 310 305 299 297 301 302 306 308 311
326 327 324 322 321 316 311 302 290 280 272 263 261 268 274 276 278 277 279 279 280 280 280 279 277 274 269 259 251 248 262 263 245 279 300 310 312 301 298 296 297 300 301
328 326 325 323 324 323 319 315 305 293 285 276 271 270 277 280 282 280 276 277 278 279 279 279 277 274 271 267 258 255 258 261 261 271 283 296 303 306 304 299 293 292 293
326 327 328 326 326 326 324 320 314 306 298 288 283 280 278 280 282 280 276 275 276 277 278 278 277 275 273 270 266 262 258 261 269 265 276 281 290 293 297 299 298 290 290
325 325 325 325 326 326 325 321 317 311 308 300 292 287 286 285 283 280 277 275 275 275 276 277 276 275 274 273 272 266 263 263 267 269 269 277 282 289 292 293 295 293 290
323 324 324 323 324 325 325 323 320 315 312 307 303 299 294 289 286 285 282 279 276 276 278 277 277 276 276 274 273 271 269 268 269 270 273 275 277 281 284 285 286 289 287
321 320 321 322 322 323 324 322 320 318 316 313 309 305 302 297 291 287 285 282 281 280 280 279 278 277 276 275 274 272 271 271 272 272 274 275 277 277 278 280 281 281 282
320 321 320 318 319 322 321 320 319 317 315 314 313 308 306 303 299 295 290 286 284 282 281 280 279 278 277 276 275 274 274 273 273 274 274 275 277 277 276 276 277 279 279
316 317 318 319 318 316 318 317 315 313 313 313 313 311 308 306 304 299 296 293 289 287 282 280 280 278 277 277 276 275 274 274 274 275 275 275 276 276 276 277 277 276 278
319 317 316 315 316 315 314 313 311 311 310 312 312 311 310 307 304 302 300 297 294 293 290 286 281 279 278 278 277 276 276 275 275 275 275 275 276 276 276 276 276 276 276
317 318 316 316 314 314 313 311 310 308 310 309 310 310 309 308 305 303 302 300 297 296 295 291 287 283 281 279 279 278 278 278 277 276 276 276 275 275 276 276 275 276 277
316 316 316 315 315 314 313 312 312 310 309 308 307 306 306 307 305 304 303 302 300 298 297 294 291 286 283 281 280 279 278 278 280 280 279 278 276 276 276 276 276 276 276
314 314 313 313 312 312 314 313 312 311 312 310 307 307 306 306 305 304 303 302 301 301 299 297 295 291 288 286 285 282 280 278 279 280 279 278 277 276 276 276 276 276 276
314 313 312 311 310 311 310 311 309 309 310 309 307 308 308 308 306 304 302 301 300 298 298 296 296 293 292 297 290 285 281 282 281 281 280 280 278 278 277 276 274 273 273
315 313 312 310 309 309 309 310 309 308 308 307 308 309 309 308 307 306 303 302 300 299 298 296 294 292 290 294 295 293 288 282 281 282 281 280 280 279 278 278 278 276 275
315 314 313 311 311 311 310 309 309 308 306 306 306 306 307 306 305 306 303 301 300 297 296 294 294 292 291 292 296 298 294 289 288 286 283 281 281 281 280 280 278 279 280
315 315 314 312 312 313 312 312 311 311 310 309 308 307 305 303 301 301 300 299 298 296 295 294 293 291 291 292 291 292 290 287 288 288 286 285 284 285 283 280 278 277 277
317 315 314 314 314 314 314 310 309 308 307 310 310 310 309 305 303 301 300 300 300 298 297 297 297 297 295 294 293 291 290 287 286 286 286 286 286 285 284 283 282 279 278
318 318 316 314 314 314 313 311 310 309 310 309 308 307 307 305 304 304 303 304 303 302 300 299 300 299 299 299 297 294 292 289 289 288 288 288 287 286 284 284 282 279 281
318 318 316 315 315 315 313 310 309 310 310 309 307 306 306 305 303 302 302 302 301 301 299 299 299 300 300 299 298 297 294 293 291 290 289 288 288 286 284 283 282 283 282
318 318 316 315 316 315 313 309 309 309 308 307 305 305 305 304 303 301 299 298 298 297 296 296 296 296 297 296 295 294 293 292 291 291 290 288 288 286 285 283 281 280 278
318 318 317 315 313 315 314 312 311 310 307 305 305 304 303 302 302 300 299 297 296 295 294 294 294 294 294 295 295 294 293 292 291 290 289 288 289 290 288 283 282 280 279
318 318 315 314 313 313 312 312 310 309 307 305 304 303 302 301 300 299 298 297 296 294 293 292 292 291 291 292 293 291 290 290 289 289 288 286 284 283 283 285 285 282 281
319 317 316 315 314 313 312 311 311 309 306 304 304 303 301 300 299 298 296 296 295 294 294 292 291 291 291 291 290 289 289 288 288 286 283 282 281 281 280 278 277 278 279